SHT1480 EGPF-EGCC

Flight info

Callsign SHT1480
Flight time N/A
Altitude 25000
Route NORBO T256 DCS L612 LAKEY
Aircraft A20N/M-SDE2E3FGHIRWXY/LB1

Departure

Time 2026-05-04 15:30
Airport Glasgow Airport (EGPF)

Arrival

Time N/A
Airport Manchester Airport (EGCC)
Time Latitude Longitude Altitude Speed Heading
2026-05-04 15:17 55.86740 -4.43096 31 ft 0 kts 208°
2026-05-04 15:20 55.86741 -4.43096 31 ft 1 kts 213°
2026-05-04 15:21 55.86745 -4.43092 31 ft 0 kts 233°
2026-05-04 15:21 55.86753 -4.43076 31 ft 2 kts 214°
2026-05-04 15:22 55.86768 -4.43062 31 ft 2 kts 191°
2026-05-04 15:22 55.86784 -4.43061 31 ft 2 kts 161°
2026-05-04 15:22 55.86806 -4.43096 31 ft 1 kts 96°
2026-05-04 15:23 55.86807 -4.43101 31 ft 1 kts 85°
2026-05-04 15:23 55.86808 -4.43079 31 ft 0 kts 82°
2026-05-04 15:26 55.86882 -4.42957 31 ft 18 kts 29°
2026-05-04 15:26 55.87011 -4.42847 29 ft 23 kts 24°
2026-05-04 15:26 55.87347 -4.42615 27 ft 28 kts 21°
2026-05-04 15:27 55.87486 -4.42415 28 ft 25 kts 51°
2026-05-04 15:27 55.87637 -4.42153 25 ft 5 kts 25°
2026-05-04 15:28 55.87640 -4.42151 26 ft 0 kts 22°
2026-05-04 15:28 55.87647 -4.42148 25 ft 7 kts 16°
2026-05-04 15:28 55.87702 -4.42387 28 ft 40 kts 227°
2026-05-04 15:29 55.87297 -4.43146 28 ft 125 kts 226°
2026-05-04 15:30 55.84572 -4.48248 3128 ft 169 kts 234°
2026-05-04 15:30 55.81725 -4.53768 5349 ft 237 kts 227°
2026-05-04 15:31 55.79721 -4.57169 7053 ft 248 kts 227°
2026-05-04 15:31 55.78541 -4.59161 7605 ft 265 kts 226°
2026-05-04 15:32 55.74794 -4.65510 10261 ft 277 kts 226°
2026-05-04 15:32 55.71997 -4.70272 11003 ft 281 kts 226°
2026-05-04 15:33 55.69129 -4.74862 12111 ft 273 kts 212°
2026-05-04 15:34 55.63685 -4.76224 15105 ft 271 kts 184°
2026-05-04 15:34 55.61824 -4.76214 15827 ft 275 kts 184°
2026-05-04 15:34 55.58156 -4.74249 17198 ft 293 kts 143°
2026-05-04 15:35 55.54966 -4.69591 18580 ft 302 kts 142°
2026-05-04 15:35 55.53344 -4.67238 19244 ft 303 kts 143°
2026-05-04 15:35 55.51703 -4.64875 19899 ft 305 kts 143°
2026-05-04 15:36 55.48375 -4.60115 21112 ft 311 kts 143°
2026-05-04 15:36 55.46706 -4.57737 21712 ft 314 kts 143°
2026-05-04 15:36 55.44996 -4.55303 22303 ft 317 kts 143°
2026-05-04 15:37 55.43272 -4.52854 22911 ft 318 kts 142°
2026-05-04 15:37 55.41548 -4.50410 23587 ft 319 kts 142°
2026-05-04 15:37 55.39805 -4.47939 24032 ft 324 kts 142°
2026-05-04 15:37 55.38057 -4.45461 24487 ft 328 kts 142°
2026-05-04 15:38 55.36313 -4.42994 24889 ft 334 kts 143°
2026-05-04 15:38 55.34464 -4.40386 25036 ft 349 kts 142°
2026-05-04 15:38 55.33260 -4.38687 25063 ft 360 kts 142°
2026-05-04 15:38 55.32895 -4.38171 25066 ft 364 kts 142°